Location: ??????
(41.3164°N, 22.6615°E)
Time: 19:57:23
(UTC+00:00)

CUBEBUG 2 - Pass Details

Date: 29 June 2022
Orbit: 584 x 693 km, 97.7° (Epoch: 07 August)

Event Time Altitude Azimuth Distance (km) Brightness Sun altitude
Rises 01:28:41 0° 12° (NNE) 2,825 ? -13.7°
Reaches altitude 10° 01:30:50 10° 13° (NNE) 1,927 ? -13.4°
Maximum altitude 01:35:01 86° 104° (ESE) 606 ? -12.9°
Enters shadow 01:38:37 14° 192° (SSW) 1,693 ? -12.4°
